Location: Dodgeville, WI 53533, USA
(43.0344°N, 90.0900°W)
Time: 17:29:33
(UTC-06:00)

N. Korean satellite - Pass Details

Date: 31 January 2021
Orbit: 451 x 502 km, 97.2° (Epoch: 06 March)

Event Time Altitude Azimuth Distance (km) Brightness Sun altitude
Rises 17:37:28 0° 207° (SSW) 2,563 11.0 -5.2°
Reaches altitude 10° 17:40:16 10° 231° (SW) 1,678 10.7 -5.7°
Maximum altitude 17:42:25 15° 267° (W) 1,387 10.3 -6.0°
Drops below altitude 10° 17:44:34 10° 304° (NW) 1,670 9.9 -6.4°
Sets 17:47:20 0° 329° (NNW) 2,543 10.4 -6.9°
